Location: Burjasot
(39.5167°N, 0.4167°W)
Time: 11:58:57
(UTC+02:00)

ISS - Pass Details

Date: 23 May 2019
Orbit: 407 x 418 km, 51.6° (Epoch: 24 June)

Event Time Altitude Azimuth Distance (km) Brightness Sun altitude
Rises 23:20:36 0° 295° (WNW) 2,353 1.2 -19.4°
Reaches altitude 10° 23:23:56 10° 331° (NNW) 1,495 0.2 -19.8°
Maximum altitude 23:25:07 11° 352° (N) 1,412 -0.3 -20.0°
Drops below altitude 10° 23:26:19 10° 13° (NNE) 1,498 -0.4 -20.1°
Sets 23:29:38 0° 48° (NE) 2,355 0.1 -20.5°
